Location: Penton Mewsey
(51.2167°N, 1.5167°W)
Time: 03:40:45
(UTC+00:00)

DMSP B5D2-2 - Pass Details

Date: 30 March 2020
Orbit: 791 x 805 km, 98.3° (Epoch: 04 June)

Event Time Altitude Azimuth Distance (km) Brightness Sun altitude
Rises 20:10:30 0° 16° (NNE) 3,303 7.4 -14.8°
Reaches altitude 10° 20:12:53 10° 20° (NNE) 2,370 6.6 -15.2°
Maximum altitude 20:18:04 61° 102° (ESE) 896 4.0 -15.9°
Drops below altitude 10° 20:23:13 10° 182° (S) 2,358 6.3 -16.6°
Sets 20:25:34 0° 186° (S) 3,285 7.0 -16.9°
